Location: Fisheating Creek Campgrounds
(26.9333°N, 81.3167°W)
Time: 07:12:16
(UTC-04:00)

Cosmos 2221 Rocket - Visible Passes

Search period start: 25 October 2014 00:00
Search period end: 03 November 2014 23:00
Orbit: 621 x 651 km, 82.5° (Epoch: 25 October)

Date Brightness Start Highest point End Pass type
(mag) Time Alt. Az. Time Alt. Az. Time Alt. Az.
25 Oct 6.3 05:44:33 10° NNE 05:47:47 20° E 05:51:01 10° SE visible
25 Oct 6.2 19:48:34 10° SW 19:52:06 23° W 19:55:37 10° NNW visible
26 Oct 4.6 06:06:14 10° N 06:10:29 47° E 06:14:44 10° SSE visible
27 Oct 3.5 06:28:41 10° NNW 06:33:03 67° W 06:37:26 10° S visible
28 Oct 6.4 05:14:38 10° NE 05:17:23 16° ENE 05:20:08 10° ESE visible
28 Oct 4.5 06:51:49 10° NNW 06:55:31 27° W 06:59:14 10° SSW visible
28 Oct 5.9 19:17:53 10° SW 19:21:43 28° W 19:25:32 10° NNW visible
29 Oct 5.0 05:36:00 10° NNE 05:40:06 38° E 05:44:13 10° SSE visible
29 Oct 6.9 19:42:49 10° W 19:44:29 12° WNW 19:46:08 10° NW visible
30 Oct 3.4 05:58:17 10° N 06:02:42 85° W 06:07:08 10° S visible
31 Oct 6.6 04:45:46 12° ENE 04:46:58 13° ENE 04:49:02 10° ESE visible
31 Oct 4.2 06:23:25 24° NW 06:25:11 33° W 06:29:10 10° SSW visible
01 Nov 5.4 05:10:28 29° E 05:10:28 29° E 05:13:38 10° SE visible
01 Nov 5.3 06:48:06 14° W 06:48:06 14° W 06:49:53 10° WSW visible
01 Nov 6.6 19:11:33 10° WSW 19:14:03 15° WNW 19:16:33 10° NW visible
02 Nov 5.2 04:34:46 26° SSE 04:34:46 26° SSE 04:36:46 10° S visible
03 Nov 5.9 04:58:48 11° SSW 04:58:48 11° SSW 04:59:02 10° SSW visible
